Vertical_Velocity
-2 0 1 1 1 0 -1 -1 -1 -0 -1 -2 -4 -3 -1 -5 -2 -3 -3 -3 -5 -2 -2 -3 -4 2 0 -0 2 1 6 4 -2 -1 2 1 1 1 2 -0 1 3 3 -1 3 3 1 3 -9 1 12 -3 1 2
-0 -2 -0 -1 0 -0 1 0 -1 0 -2 -2 -2 -1 -3 -6 -3 -4 -2 -1 -5 -4 3 -2 -4 -4 -2 -1 -0 -3 4 -3 3 1 -1 1 0 0 1 -0 1 5 3 3 5 -1 2 -3 7 2 3 4 1 3
1 -0 0 0 -1 0 -0 -1 -0 0 -2 -2 -1 -2 -3 -3 -5 -6 -4 -4 -5 -4 1 -3 1 -1 -3 -2 -2 4 -1 -5 -1 1 1 -1 3 3 1 -2 1 -1 1 2 4 -3 1 0 3 2 3 3 1 2
2 3 -1 -0 0 -0 -1 -0 0 -0 -0 0 -2 -3 -2 -3 -6 -3 -3 -3 -1 -3 -1 4 -2 1 -1 -1 -2 0 2 -3 -3 2 1 1 3 3 -1 5 11 -5 5 -1 -6 -2 -9 6 3 5 -2 -1 0 -0
1 2 -1 1 -1 -0 1 -1 -1 -1 1 -0 -3 -1 -3 -2 -3 -5 -4 -1 -5 -4 2 -1 -3 -2 -2 2 3 0 0 1 1 0 2 -1 -1 7 -3 6 -0 -2 -2 2 -1 0 10 -6 -3 -1 3 1 0 2
1 -1 -2 3 -2 -1 0 -1 -0 -0 0 -2 -4 0 -1 -4 -4 -2 -0 -1 -2 -7 -1 0 -5 -1 4 0 -2 -1 1 4 -0 2 -3 -3 -13 11 3 0 -7 -5 -0 4 -10 -3 5 -6 -5 16 2 2 1 2
-1 -1 -2 2 -2 -2 1 -0 -2 0 -1 -3 -1 -2 -0 -2 -3 -1 4 1 -3 -3 -2 -2 2 1 0 -3 -0 3 3 0 3 -1 -1 2 -1 7 2 1 -13 -2 3 2 4 4 -6 6 -6 2 3 2 2 3
-0 -0 2 0 -3 1 -1 -0 0 -0 -1 -2 -2 -1 -0 -3 -1 -2 -2 -2 -3 -1 -6 1 -2 1 -6 5 6 -1 1 -1 1 -2 1 0 2 0 1 -9 -3 -5 2 2 -4 3 4 -3 5 0 1 3 3 3
-1 -2 -0 0 2 1 4 1 2 2 -1 -1 -2 -2 -1 -4 1 -0 -3 -1 -0 1 3 0 2 2 -6 0 -1 0 1 2 1 1 -1 6 -1 -1 -9 6 -1 -1 2 -3 -6 -1 2 1 6 -0 2 4 3 1
-2 2 -0 -1 0 2 2 2 2 1 -1 -0 -2 -1 0 0 -0 -7 -1 1 -1 1 1 -0 -5 0 -5 0 -0 -1 0 -1 1 -3 -0 2 -4 -0 -7 -0 2 2 3 2 -3 -10 2 5 5 3 2 3 2 0
-1 1 -0 1 2 2 2 2 1 1 0 -2 -1 0 -2 -2 -1 -2 2 1 -0 2 -0 -3 -0 2 -0 4 1 1 -0 -0 2 4 4 -1 -1 -4 0 1 18 1 0 2 -5 -2 3 1 2 2 1 2 2 0
3 -3 -1 1 3 1 2 -0 -2 -2 -4 -2 -1 -1 1 2 -1 2 -0 2 2 -0 2 -0 2 -5 3 -2 4 1 1 0 -0 -0 3 -0 0 -6 0 -1 3 1 -1 0 1 -0 -5 -1 2 1 2 1 1 0
2 -1 5 1 2 1 3 -0 6 4 1 -1 -2 0 -2 -0 3 3 -0 1 1 -1 -0 2 4 -0 2 -2 0 1 2 -2 -0 2 -1 2 -2 -3 1 2 4 9 4 1 2 2 2 1 3 1 -0 3 0 3
5 4 2 4 1 1 4 -2 1 -3 5 -4 -2 1 0 2 -1 -2 -0 1 3 -1 3 2 0 2 0 3 0 3 -3 3 1 1 1 -2 -2 -1 -3 11 1 2 1 4 8 2 1 3 2 1 0 -1 1 1
-2 4 2 17 -2 3 2 -1 -1 9 -6 -3 -1 -2 0 -1 -2 -2 -2 -2 -1 -1 1 2 -0 2 0 2 0 0 2 -1 0 -0 1 4 1 -4 -3 1 3 4 3 2 4 4 5 1 0 3 1 -1 -0 0
-0 38 8 1 5 5 6 17 12 10 0 -3 0 2 -0 2 -0 0 -1 -1 -4 -2 -2 0 0 2 -1 0 1 -2 3 -2 2 1 1 -3 -9 -5 -2 8 4 6 5 6 2 3 5 3 1 2 2 -0 0 1
17 -3 -8 -0 6 8 -4 14 7 3 -2 -0 -2 -1 -1 -1 -0 0 -1 3 -5 -1 0 -1 3 -5 0 2 1 -0 -1 0 1 3 3 -11 3 -22 -21 -1 4 2 2 3 3 -1 0 3 3 3 0 1 -1 -1
7 -4 -2 -1 31 32 22 9 -2 4 0 -4 -1 -4 -2 -0 -1 1 -3 -3 1 -0 0 -3 1 3 -0 1 -1 -3 -3 2 3 -2 -4 4 -1 3 -1 -23 -8 11 3 1 1 2 4 1 0 -2 -1 0 -1 -1
-12 -4 0 4 -13 -15 -4 2 3 -3 0 -3 1 1 -1 -3 -7 -3 -1 3 -2 -2 2 1 6 -1 -5 -7 -1 -6 -8 3 1 6 -0 2 5 3 5 -10 -3 2 2 1 -1 -0 -0 -0 -1 1 3 1 -1 -1
-3 -3 -6 6 18 -3 -2 -0 2 -1 -1 -5 -0 1 -3 -12 -3 -1 1 3 4 5 5 2 -6 -15 -3 -6 -2 1 -2 0 3 -5 -5 -5 5 2 6 2 1 -1 -1 -0 -0 -0 1 -3 -2 -0 2 1 -1 1
29 25 26 9 4 -1 -2 -3 0 -1 -1 -5 -4 1 -5 -0 -1 -2 -5 6 12 -2 -1 -10 -13 -23 -15 -7 -3 3 -12 3 -4 2 -3 -11 -5 4 -2 1 1 -0 1 0 -1 -1 0 -0 -1 -1 -0 1 2 1
16 11 -5 14 1 -1 -1 1 1 0 -1 0 2 0 2 1 -1 -6 -3 11 -2 -17 -12 -4 -4 2 5 -0 -6 -2 -10 2 1 -5 -4 4 -6 0 -1 4 -1 -4 2 -1 -1 -1 -4 -0 3 -1 -2 -1 -2 0
-3 6 9 -3 -4 2 7 -2 -0 -1 -2 -1 3 3 0 -1 -10 5 3 -5 -11 -10 -2 -3 -7 4 -2 -5 2 -2 -0 4 0 -1 -2 -3 -2 0 -5 -0 5 -4 -2 0 -2 -3 -4 4 2 -1 -1 -1 -4 -2
5 -6 -2 -3 1 3 1 0 0 1 2 3 1 1 0 -3 1 7 -2 -7 -23 3 -0 -8 5 -3 2 2 -5 -9 -9 5 -2 -2 -0 2 -4 -8 4 -6 0 -6 -3 0 -7 -2 -0 -2 1 -0 -1 -1 -1 -3
-14 -1 -4 2 3 -3 2 4 2 4 -0 -1 2 0 -2 2 2 1 -3 -26 0 -2 -1 2 2 0 1 -6 1 -8 4 5 -2 -5 -5 7 1 -8 -7 3 -4 -4 12 -3 -2 -4 -3 2 0 0 0 -1 -2 -2
-2 -2 -5 -3 4 -4 -3 -0 -0 -2 -0 1 -2 -2 1 2 3 -5 -4 -3 -2 1 -1 2 5 5 -4 -3 -3 -1 -6 8 6 2 -8 4 -2 -2 -5 -5 -8 -1 -0 0 -1 -3 -2 -1 -1 0 1 1 -2 -2
-1 2 -0 2 -4 -0 4 3 1 -1 0 -1 -1 1 1 2 -3 -8 -10 -4 -1 -1 6 6 3 -0 -3 2 2 -1 9 6 1 -5 4 3 -0 1 -3 -8 -12 -4 5 1 3 4 -2 -3 -1 0 -1 -3 -3 1
0 1 -6 -3 -0 -2 -2 1 -0 -2 -2 -2 4 1 -2 -5 -9 -6 -2 -0 4 2 -4 -5 1 2 3 3 3 3 3 4 5 4 2 -1 -2 -3 -4 -4 -3 -0 -2 -1 2 1 -0 -2 -3 1 0 -3 -1 2
-0 1 -1 2 2 1 -2 -4 -4 -1 -3 -0 -1 -1 -9 -19 -8 -1 -8 -5 -6 1 -7 0 -4 5 -6 3 5 6 5 2 3 -0 -1 -5 2 -7 1 3 3 5 3 4 1 1 0 1 0 -2 -2 -3 1 -0
1 -2 1 0 0 -3 -10 -13 -9 -7 -6 -14 -3 5 -2 -20 -9 2 2 -5 -7 -9 -0 0 -5 6 -6 2 -8 -4 3 4 2 2 -3 -3 2 3 2 -2 -2 -1 1 -1 -1 -1 -1 -0 -1 -2 -3 -1 -0 -2
-2 2 2 0 -2 -6 -11 -5 3 6 5 -1 2 1 -20 -11 -9 -1 -4 -4 -5 -3 0 -8 -5 0 -1 -1 1 0 -10 4 5 2 -0 -0 -2 1 2 -1 -1 -1 -1 -2 -2 -2 -1 -2 -2 -1 -2 -2 2 -1
1 -2 -1 1 -4 -2 1 4 -1 -4 -2 4 -6 -1 -1 3 -12 -14 -13 -2 1 -5 -7 2 -1 -13 10 -3 3 1 3 -1 -3 -1 -1 -2 -0 2 -1 1 1 0 0 0 0 0 3 2 -0 -0 -2 -1 1 -1
2 3 2 2 1 -1 -3 1 2 -5 3 -0 -6 -2 -2 7 -7 -25 -15 0 2 0 -0 0 -0 -1 2 3 -0 0 2 -1 -1 -1 -0 0 -0 0 -0 -0 1 1 0 1 1 1 -2 -2 -3 -3 -3 -1 1 0
Height
1530 1536 1541 1545 1549 1552 1555 1557 1560 1563 1565 1566 1567 1567 1568 1568 1567 1566 1565 1565 1567 1569 1572 1573 1575 1577 1577 1577 1575 1576 1574 1572 1569 1565 1561 1558 1557 1550 1552 1543 1547 1542 1535 1535 1534 1519 1508 1493 1484 1489 1490 1486 1485 1483
1527 1533 1539 1544 1548 1552 1555 1558 1561 1564 1566 1568 1569 1569 1569 1570 1569 1567 1568 1566 1566 1569 1572 1571 1572 1573 1575 1577 1578 1577 1577 1578 1575 1573 1567 1564 1556 1553 1551 1544 1547 1542 1545 1541 1537 1503 1495 1500 1497 1495 1491 1488 1486 1486
1524 1531 1537 1543 1548 1552 1556 1559 1562 1565 1567 1569 1570 1570 1571 1571 1571 1570 1569 1568 1568 1570 1571 1571 1572 1572 1572 1572 1575 1577 1576 1577 1577 1576 1574 1571 1565 1558 1549 1541 1547 1545 1543 1539 1534 1502 1500 1499 1498 1495 1492 1489 1487 1487
1522 1528 1535 1541 1546 1551 1555 1559 1563 1566 1568 1570 1571 1572 1573 1572 1572 1571 1571 1570 1571 1572 1573 1573 1571 1571 1571 1571 1571 1573 1576 1576 1577 1576 1574 1568 1562 1558 1552 1548 1545 1545 1541 1533 1525 1509 1498 1493 1495 1494 1489 1488 1486 1485
1519 1525 1532 1538 1545 1550 1554 1559 1563 1566 1569 1571 1573 1574 1574 1574 1573 1572 1572 1572 1572 1576 1574 1572 1570 1571 1570 1569 1570 1571 1573 1576 1577 1575 1572 1567 1564 1559 1550 1546 1537 1537 1533 1527 1513 1512 1511 1504 1498 1495 1490 1488 1485 1486
1516 1523 1530 1536 1543 1549 1554 1558 1562 1566 1569 1572 1574 1575 1575 1576 1575 1574 1575 1575 1573 1573 1575 1573 1571 1570 1569 1569 1569 1570 1572 1574 1574 1573 1569 1563 1559 1559 1546 1536 1530 1531 1530 1528 1519 1515 1511 1503 1498 1495 1490 1487 1485 1487
1513 1520 1527 1534 1540 1547 1552 1558 1562 1566 1569 1572 1574 1575 1576 1577 1576 1577 1578 1577 1575 1575 1576 1575 1570 1570 1568 1568 1568 1569 1571 1571 1572 1569 1563 1558 1553 1555 1546 1533 1524 1524 1522 1519 1515 1512 1505 1502 1497 1493 1489 1487 1486 1489
1510 1518 1524 1531 1538 1545 1551 1557 1562 1566 1569 1573 1575 1576 1576 1577 1577 1577 1577 1576 1577 1577 1578 1576 1570 1569 1568 1568 1567 1567 1568 1569 1567 1563 1557 1552 1549 1548 1537 1523 1522 1521 1517 1514 1510 1509 1507 1503 1496 1493 1491 1491 1491 1491
1508 1515 1522 1528 1536 1543 1549 1556 1561 1565 1570 1573 1575 1576 1576 1577 1578 1578 1578 1576 1576 1582 1579 1578 1571 1567 1569 1567 1566 1566 1565 1564 1561 1556 1551 1549 1538 1534 1524 1521 1520 1518 1516 1511 1507 1505 1502 1502 1499 1496 1494 1494 1493 1494
1505 1512 1520 1527 1534 1541 1548 1555 1561 1565 1569 1573 1576 1577 1577 1578 1577 1578 1578 1578 1579 1580 1579 1578 1576 1571 1571 1566 1563 1565 1563 1560 1552 1547 1547 1543 1533 1527 1526 1520 1514 1509 1507 1507 1504 1500 1500 1500 1500 1498 1496 1496 1496 1497
1502 1510 1518 1526 1533 1540 1547 1554 1560 1564 1569 1573 1575 1576 1577 1578 1579 1579 1579 1579 1579 1578 1576 1576 1575 1572 1570 1567 1563 1563 1558 1555 1551 1545 1544 1535 1529 1528 1521 1514 1508 1502 1498 1496 1496 1496 1496 1497 1497 1497 1496 1496 1497 1499
1499 1507 1515 1523 1532 1539 1546 1552 1557 1562 1567 1572 1574 1575 1577 1578 1579 1579 1576 1577 1576 1572 1572 1573 1571 1571 1569 1567 1565 1561 1559 1556 1549 1549 1543 1532 1532 1525 1516 1511 1505 1499 1493 1489 1491 1493 1495 1495 1496 1497 1498 1498 1499 1501
1496 1504 1511 1520 1530 1537 1544 1550 1558 1563 1567 1572 1575 1575 1576 1578 1577 1574 1572 1570 1572 1570 1570 1570 1568 1568 1567 1566 1564 1563 1561 1552 1549 1545 1538 1536 1534 1524 1515 1509 1503 1499 1495 1491 1490 1491 1493 1494 1496 1497 1498 1499 1500 1501
1492 1501 1509 1518 1527 1535 1542 1550 1556 1561 1567 1570 1572 1573 1572 1572 1570 1566 1564 1564 1567 1568 1569 1568 1566 1566 1564 1563 1561 1561 1553 1552 1546 1541 1536 1538 1533 1525 1514 1512 1507 1503 1497 1493 1491 1491 1492 1493 1494 1496 1498 1499 1500 1501
1489 1498 1506 1515 1524 1533 1541 1547 1553 1560 1564 1566 1568 1566 1566 1564 1565 1566 1567 1567 1567 1567 1568 1566 1564 1564 1560 1560 1560 1558 1552 1548 1540 1537 1537 1536 1533 1526 1519 1516 1510 1506 1502 1499 1496 1495 1493 1493 1493 1494 1495 1497 1499 1500
1486 1497 1501 1512 1522 1531 1539 1546 1551 1557 1559 1562 1562 1561 1561 1563 1563 1564 1564 1565 1566 1566 1565 1565 1562 1558 1555 1553 1555 1552 1546 1541 1537 1539 1538 1536 1533 1529 1523 1519 1515 1510 1506 1504 1501 1500 1499 1497 1496 1495 1494 1495 1496 1498
1481 1487 1497 1510 1521 1530 1535 1543 1548 1552 1554 1555 1555 1555 1557 1558 1558 1560 1561 1563 1564 1565 1565 1565 1560 1552 1550 1546 1546 1543 1539 1537 1538 1539 1536 1536 1533 1530 1526 1520 1516 1513 1511 1509 1505 1502 1500 1498 1497 1496 1495 1494 1494 1495
1478 1486 1497 1508 1518 1524 1531 1538 1543 1545 1547 1549 1550 1550 1553 1555 1556 1558 1559 1560 1562 1562 1563 1561 1558 1550 1543 1536 1536 1538 1539 1538 1536 1535 1533 1533 1531 1529 1527 1524 1519 1517 1515 1512 1510 1508 1505 1502 1500 1498 1497 1495 1494 1493
1475 1485 1495 1503 1510 1521 1529 1534 1536 1538 1542 1544 1546 1548 1551 1552 1552 1553 1555 1555 1556 1558 1559 1556 1549 1539 1538 1538 1537 1537 1538 1537 1536 1535 1533 1532 1531 1529 1527 1526 1522 1519 1517 1514 1511 1509 1507 1504 1503 1501 1498 1496 1495 1493
1477 1486 1494 1503 1511 1517 1523 1528 1531 1535 1538 1540 1542 1545 1547 1547 1547 1548 1548 1548 1550 1552 1549 1543 1537 1536 1536 1535 1536 1536 1535 1535 1534 1532 1529 1529 1528 1526 1524 1522 1520 1519 1517 1515 1512 1509 1507 1506 1506 1503 1500 1497 1495 1493
1479 1487 1495 1498 1506 1512 1518 1521 1525 1529 1532 1535 1538 1541 1542 1542 1541 1540 1539 1539 1541 1538 1534 1532 1532 1531 1530 1529 1529 1529 1528 1530 1530 1528 1524 1522 1521 1521 1518 1518 1516 1515 1513 1512 1510 1508 1507 1506 1505 1503 1500 1497 1495 1493
1471 1479 1487 1498 1504 1509 1514 1516 1520 1523 1529 1531 1535 1536 1535 1534 1533 1531 1530 1530 1528 1526 1525 1521 1519 1518 1517 1516 1517 1518 1517 1519 1519 1519 1518 1517 1515 1514 1514 1514 1512 1511 1510 1508 1508 1506 1505 1505 1503 1500 1498 1496 1493 1491
1471 1483 1491 1496 1501 1506 1512 1514 1518 1521 1525 1528 1529 1529 1528 1526 1525 1524 1520 1517 1514 1514 1512 1510 1508 1508 1507 1506 1507 1507 1508 1509 1509 1509 1509 1509 1508 1508 1507 1506 1506 1505 1504 1503 1503 1502 1502 1500 1498 1496 1494 1492 1490 1489
1474 1480 1486 1492 1496 1503 1508 1511 1515 1518 1519 1521 1522 1520 1518 1518 1516 1513 1506 1505 1499 1501 1499 1496 1497 1496 1496 1496 1495 1494 1494 1498 1498 1498 1499 1501 1500 1499 1500 1497 1498 1498 1497 1496 1497 1497 1496 1494 1492 1490 1489 1487 1486 1485
1471 1482 1484 1488 1492 1498 1502 1507 1509 1510 1512 1512 1513 1512 1511 1511 1509 1504 1498 1481 1488 1485 1485 1486 1487 1486 1486 1484 1484 1483 1484 1486 1487 1488 1488 1491 1491 1491 1490 1490 1490 1489 1489 1489 1489 1489 1488 1487 1485 1483 1482 1481 1480 1479
1467 1473 1477 1479 1485 1490 1493 1497 1500 1502 1503 1505 1505 1504 1505 1505 1504 1496 1483 1475 1476 1477 1476 1476 1476 1477 1477 1476 1475 1475 1475 1477 1477 1476 1477 1481 1482 1482 1481 1480 1479 1478 1480 1482 1482 1482 1481 1480 1479 1478 1476 1476 1475 1474
1462 1466 1469 1472 1476 1480 1483 1486 1489 1491 1493 1495 1494 1497 1499 1498 1490 1478 1474 1471 1471 1471 1472 1472 1472 1471 1470 1468 1467 1467 1467 1468 1468 1467 1469 1469 1470 1470 1471 1471 1470 1471 1472 1473 1473 1472 1472 1472 1471 1471 1470 1470 1470 1469
1454 1457 1461 1468 1472 1474 1475 1477 1479 1480 1482 1484 1486 1485 1484 1479 1471 1469 1469 1469 1467 1467 1467 1467 1467 1466 1464 1463 1461 1460 1459 1458 1458 1459 1458 1458 1459 1460 1461 1462 1462 1463 1463 1462 1463 1463 1464 1464 1464 1464 1464 1464 1464 1462
1451 1452 1458 1463 1467 1468 1468 1468 1467 1468 1470 1471 1471 1470 1466 1463 1462 1463 1463 1463 1461 1459 1457 1456 1456 1457 1454 1453 1452 1452 1452 1451 1450 1449 1449 1448 1449 1449 1450 1450 1450 1451 1451 1453 1454 1454 1455 1455 1456 1457 1457 1457 1456 1455
1445 1449 1452 1455 1457 1455 1455 1456 1457 1459 1461 1461 1462 1460 1457 1450 1450 1454 1452 1451 1449 1447 1446 1445 1443 1444 1442 1443 1441 1441 1442 1443 1443 1443 1441 1440 1440 1440 1440 1441 1441 1441 1442 1443 1445 1446 1447 1448 1448 1449 1450 1449 1448 1447
1439 1444 1445 1446 1444 1444 1447 1450 1451 1453 1454 1452 1452 1452 1444 1438 1436 1438 1438 1436 1435 1434 1432 1429 1429 1429 1429 1428 1429 1430 1429 1431 1433 1433 1434 1433 1433 1433 1434 1434 1434 1435 1436 1437 1438 1439 1440 1441 1442 1441 1441 1440 1440 1439
1433 1435 1439 1439 1438 1441 1444 1446 1445 1444 1442 1442 1440 1441 1436 1435 1427 1420 1419 1420 1419 1418 1416 1418 1417 1415 1417 1416 1416 1417 1418 1419 1420 1422 1424 1424 1425 1426 1427 1427 1428 1428 1430 1431 1431 1432 1431 1431 1431 1430 1430 1430 1430 1429
1429 1431 1433 1435 1435 1436 1438 1441 1437 1434 1433 1430 1428 1428 1426 1426 1421 1412 1407 1408 1407 1406 1405 1405 1404 1404 1404 1404 1404 1405 1406 1407 1409 1410 1412 1413 1415 1417 1419 1419 1420 1421 1422 1422 1423 1423 1422 1422 1421 1420 1420 1420 1420 1420